Retour au catalogue

TITAN 3C TRANSTAGE DEB

LostHEO
NORAD 28820·DEBRIS·🇺🇸 United States

Lancé Dec 21, 1965 depuis Cape Canaveral Space Force Station

Loading…

Prochains Passages (prochaines 24 heures)

TLE

PériméSource: Space-Track

Époque: Nov 8, 2025, 09:47 UTC

1 28820U 65108CH  25312.40773428  .00000518  00000-0  21085-2 0  9990
2 28820  26.5829 259.9790 6739192 180.9282 176.6448  2.84904157219257

Suivez TITAN 3C TRANSTAGE DEB en temps réel avec AllMySat

Download on the App Store